sat.trackr.live / text

‹ back to catalog

HULIANWANG DIGUI-15

NORAD 62975 · 2025-030E

PAYLOAD ACTIVE UNKNOWN

§ Identity

Operator
Country
PRC
Launch date
2025-02-11
Launch site
WSC
Launch vehicle
Mass (kg)
RCS (m²)

External: N2YO · Heavens-Above · Gunter

§ Orbital elements

Epoch: 2026-05-24T23:42:52.182144Z

Period
108.33 min
Inclination
50.0037°
Eccentricity
0.0001169
Mean motion
13.29326607 rev/d
Perigee alt
1,148.4 km
Apogee alt
1,150.2 km
Semi-major
7,527.4 km
B*
6.5697e-5
RAAN
318.9568°
Arg perigee
96.7605°
Mean anomaly
263.3400°
Rev number
6,277

§ Raw data

HULIANWANG DIGUI-151 62975U 25030E   26144.98810396 -.00000094  00000+0  65697-4 0  99902 62975  50.0037 318.9568 0001169  96.7605 263.3400 13.29326607 62775

JSON: /api/v1/satellites/62975 · /tle

For live sub-satellite position, see the globe view (requires WebGL).

§ Visibility from observer

Set your observer location to see the next 7 days of passes ≥ 10°. The values pass through the URL so the page stays shareable.

No JS? Fill the form by hand. The geolocation button needs JavaScript.